Weather in Bussevka

Russia / Primorsky Krai     44°38′06″N   132°58′59″E
temp.,
°C
wind,
m/s
gust,
m/s
humid.,
%
clouds,
%
prec.,
mm/h
press.,
hPa
HPBL,
m
21 january, thu
thu2101:00−9ssw4158733 0.0 1020373
04:00−7sw7158348 0.0 1019327
07:00−7wsw4128541 0.0 1020330
10:00−8w269571 0.1 1022215
13:00−6nnw227980 0.0 1023443
16:00−8nne358468 0.0 1022312
19:00−12e1188100 0.0 102421
22:00−14ene228899 0.0 102420
22 january, fri
fri2201:00−16ne22890 0.0 102421
04:00−17ne23910 0.0 102427
07:00−18nne239065 0.0 102460
10:00−19nne238878 0.0 102686
13:00−14n22800 0.0 1026242
16:00−13n12830 0.0 1026206
19:00−18ne11890 0.0 102820
22:00−19sse11860 0.0 102920
23 january, sat
sat2301:00−19s11870 0.0 103020
04:00−20sse11860 0.0 103020
07:00−20ese11860 0.0 103120
10:00−17se11840 0.0 103226
13:00−12wnw11780 0.0 1030255
16:00−11n11840 0.0 1029180
19:00−16ene12920 0.0 102920
22:00−15se12860 0.0 102920
24 january, sun
sun2401:00−16sse11850 0.0 102920
04:00−16sse11810 0.0 102920
07:00−17se11820 0.0 102820
10:00−13ese01810 0.0 102925
13:00−8nw22750 0.0 1028214
16:00−8nnw12810 0.0 1028126
19:00−14ne01860 0.0 103020
22:00−14e11840 0.0 103120
25 january, mon
mon2501:00−15ne118319 0.0 103120
04:00−15e118210 0.0 103220
07:00−15ne11820 0.0 103220
10:00−13ne11830 0.0 103327
13:00−8n11790 0.0 1031196
16:00−7n23900 0.0 1029142
19:00−11nne229367 0.0 102821
22:00−11sse118983 0.0 102721